Home > Products > State Listing > Wyoming Data
Latest:
 RWRWY |
  [top]

000
ASUS45 KCYS 241810
RWRWY

WYOMING REGIONAL WEATHER ROUNDUP
NATIONAL WEATHER SERVICE CHEYENNE WY
1200 PM MDT TUE MAY 24 2016

NOTE:  "FAIR" INDICATES FEW OR NO CLOUDS BELOW 12,000 FEET
WITH NO SIGNIFICANT WEATHER AND/OR OBSTRUCTIONS TO VISIBILITY.

WYZ001-241900-
YELLOWSTONE NATIONAL PARK

CITY           SKY/WX    TMP DP  RH WIND       PRES   REMARKS
LK YELLOWSTONE   N/A     47  28  47 MISG      29.96S
6HR MIN TEMP:  28; 6HR MAX TEMP:  47;

W YELLOWSTONE  NOT AVBL

$$
WYZ002>013-054>058-071-098>099-241900-
NORTHERN WYOMING

CITY           SKY/WX    TMP DP  RH WIND       PRES   REMARKS
JACKSON        MOSUNNY   50  30  46 CALM      29.92F
CODY           FAIR      55  39  54 N3        29.88F
GREYBULL       FAIR      64  30  27 MISG      29.85F
6HR MIN TEMP:  38; 6HR MAX TEMP:  65;

WORLAND        FAIR      63  36  36 VRB5      29.85F
6HR MIN TEMP:  35; 6HR MAX TEMP:  63;

SHERIDAN       FAIR      63  40  42 SE6       29.88F
6HR MIN TEMP:  35; 6HR MAX TEMP:  64;

BUFFALO          N/A     62  38  40 E14G21    29.91F
GILLETTE       FAIR      65  36  34 S6        29.90F
6HR MIN TEMP:  32; 6HR MAX TEMP:  65;

HULETT         FAIR      64  37  36 CALM      29.91F
NEWCASTLE      FAIR      64  30  27 S8        29.93S

$$
WYZ014>020-022>026-101>103-241900-
CENTRAL WYOMING

CITY           SKY/WX    TMP DP  RH WIND       PRES   REMARKS
BIG PINEY      PTSUNNY   53  30  41 S5        29.94F
6HR MIN TEMP:  28; 6HR MAX TEMP:  53;

PINEDALE       MOCLDY    50  32  50 S6        29.97S
DUBOIS         MOCLDY    54  25  32 E7        29.91F
LANDER         PTSUNNY   59  33  37 VRB3      29.86F
6HR MIN TEMP:  38; 6HR MAX TEMP:  60;

RIVERTON       FAIR      61  31  32 VRB3      29.88F
6HR MIN TEMP:  38; 6HR MAX TEMP:  63;

CASPER         FAIR      61  33  35 NE5       29.90F
6HR MIN TEMP:  33; 6HR MAX TEMP:  61;

DOUGLAS        FAIR      67  39  35 SE16G24   29.91F
6HR MIN TEMP:  35; 6HR MAX TEMP:  67;


$$
WYZ021-027>030-104>119-241900-
SOUTHERN WYOMING

CITY           SKY/WX    TMP DP  RH WIND       PRES   REMARKS
EVANSTON       FAIR      53  35  50 E13       29.91F
6HR MIN TEMP:  39; 6HR MAX TEMP:  54; 6HR PCP: TRACE;

KEMMERER         N/A     54  30  40 E9G16     29.93F
FORT BRIDGER   RAIN      45  39  81 SW29G38   29.98R
ROCK SPRINGS   FAIR      60  29  30 E9        29.90F
6HR MIN TEMP:  40; 6HR MAX TEMP:  60;

DIXON          FAIR      67  25  21 SW17G25   29.95S
RAWLINS        FAIR      60  30  32 E7        29.93F
6HR MIN TEMP:  33; 6HR MAX TEMP:  61;

SARATOGA       MOCLDY    63  32  31 NW6       29.93S
LARAMIE        FAIR      59  40  49 SE31G40   29.94F
6HR MIN TEMP:  30; 6HR MAX TEMP:  61;

CHEYENNE       FAIR      62  44  51 S22G30    29.98S
6HR MIN TEMP:  40; 6HR MAX TEMP:  62;

TORRINGTON     FAIR      70  46  42 SE13G21   29.90F
6HR MIN TEMP:  40; 6HR MAX TEMP:  70;

PINE BLUFFS    FAIR      68  43  40 S21G26    29.96F

$$





000
ASUS45 KCYS 241710
RWRWY

WYOMING REGIONAL WEATHER ROUNDUP
NATIONAL WEATHER SERVICE CHEYENNE WY
1100 AM MDT TUE MAY 24 2016

NOTE:  "FAIR" INDICATES FEW OR NO CLOUDS BELOW 12,000 FEET
WITH NO SIGNIFICANT WEATHER AND/OR OBSTRUCTIONS TO VISIBILITY.

WYZ001-241800-
YELLOWSTONE NATIONAL PARK

CITY           SKY/WX    TMP DP  RH WIND       PRES   REMARKS
LK YELLOWSTONE   N/A     42  30  62 VRB3      29.96S
W YELLOWSTONE  NOT AVBL

$$
WYZ002>013-054>058-071-098>099-241800-
NORTHERN WYOMING

CITY           SKY/WX    TMP DP  RH WIND       PRES   REMARKS
JACKSON        MOSUNNY   48  30  49 CALM      29.93F
CODY           FAIR      54  37  54 NE5       29.90S
GREYBULL       FAIR      59  33  37 SE5       29.87F
WORLAND        FAIR      59  37  44 NE5       29.87F
SHERIDAN       FAIR      59  38  45 CALM      29.90F
BUFFALO          N/A    N/A N/A N/A MISG      29.92S
GILLETTE       FAIR      62  36  37 NE6       29.91F
HULETT         FAIR      64  37  36 NE8       29.92S
NEWCASTLE      FAIR      61  30  31 S13       29.94S

$$
WYZ014>020-022>026-101>103-241800-
CENTRAL WYOMING

CITY           SKY/WX    TMP DP  RH WIND       PRES   REMARKS
BIG PINEY      PTSUNNY   49  30  48 S7        29.96F
PINEDALE       PTSUNNY   48  32  53 SE5       29.97S
DUBOIS         PTSUNNY   50  23  34 CALM      29.92F
LANDER         FAIR      57  32  38 NE7       29.88F
RIVERTON       FAIR      59  32  36 SE3       29.89F
CASPER         FAIR      59  37  44 E7        29.91F
DOUGLAS        FAIR      65  37  35 SE16      29.92F

$$
WYZ021-027>030-104>119-241800-
SOUTHERN WYOMING

CITY           SKY/WX    TMP DP  RH WIND       PRES   REMARKS
EVANSTON       FAIR      52  33  48 VRB5      29.93S
KEMMERER         N/A     55  30  38 SE8       29.94F
FORT BRIDGER   FAIR      55  32  41 NE7       29.95F THUNDER
ROCK SPRINGS   FAIR      57  27  31 E10       29.92F
DIXON          FAIR      65  27  24 SW12G22   29.95S
RAWLINS        FAIR      54  31  41 E9        29.94F
SARATOGA       FAIR      61  32  33 N3        29.94F
LARAMIE        FAIR      59  39  47 SE26G33   29.95F
CHEYENNE       FAIR      59  43  55 S22G30    29.98F
TORRINGTON     CLOUDY    62  45  53 SE8       29.92F
PINE BLUFFS    PTSUNNY   64  43  45 S13G20    29.98S

$$





000
ASUS45 KCYS 241510
RWRWY

WYOMING REGIONAL WEATHER ROUNDUP
NATIONAL WEATHER SERVICE CHEYENNE WY
900 AM MDT TUE MAY 24 2016

NOTE:  "FAIR" INDICATES FEW OR NO CLOUDS BELOW 12,000 FEET
WITH NO SIGNIFICANT WEATHER AND/OR OBSTRUCTIONS TO VISIBILITY.

WYZ001-241600-
YELLOWSTONE NATIONAL PARK

CITY           SKY/WX    TMP DP  RH WIND       PRES   REMARKS
LK YELLOWSTONE   N/A     41  30  65 VRB3      29.97S
W YELLOWSTONE  NOT AVBL

$$
WYZ002>013-054>058-071-098>099-241600-
NORTHERN WYOMING

CITY           SKY/WX    TMP DP  RH WIND       PRES   REMARKS
JACKSON        SUNNY     43  30  61 CALM      29.96R
CODY           PTSUNNY   45  36  70 E3        29.92R
GREYBULL       FAIR      53  35  50 SE5       29.89S
WORLAND        FAIR      52  35  52 NW5       29.90S
SHERIDAN       FAIR      53  36  52 E3        29.92S
BUFFALO          N/A    N/A N/A N/A MISG      29.93R
GILLETTE       FAIR      55  35  47 N3        29.92R
HULETT         FAIR      55  37  50 N6        29.92F
NEWCASTLE      FAIR      59  30  33 S13       29.93R

$$
WYZ014>020-022>026-101>103-241600-
CENTRAL WYOMING

CITY           SKY/WX    TMP DP  RH WIND       PRES   REMARKS
BIG PINEY      PTSUNNY   40  33  76 E9        29.96F WCI  34
PINEDALE       CLOUDY    41  32  70 E3        29.98S
DUBOIS         PTSUNNY   45  28  53 CALM      29.94F
LANDER         FAIR      50  33  52 SE9       29.91S
RIVERTON       FAIR      51  35  54 NE7       29.92F
CASPER         FAIR      50  34  54 NW5       29.93S
DOUGLAS        FAIR      52  35  52 CALM      29.94S

$$
WYZ021-027>030-104>119-241600-
SOUTHERN WYOMING

CITY           SKY/WX    TMP DP  RH WIND       PRES   REMARKS
EVANSTON       CLOUDY    43  33  68 W5        29.94R
KEMMERER         N/A     45  34  65 NW3       29.96R
FORT BRIDGER   PTSUNNY   48  37  66 NW3       29.98R
ROCK SPRINGS   FAIR      50  35  56 NE3       29.94S
DIXON          FAIR      52  32  47 SE3       29.95F
RAWLINS        FAIR      48  32  53 E7        29.97R
SARATOGA       FAIR      48  32  53 S3        29.98R
LARAMIE        FAIR      50  38  63 S9        29.98S
CHEYENNE       PTSUNNY   56  44  64 S13       29.98S
TORRINGTON     FAIR      54  44  69 SE6       29.94R
PINE BLUFFS    CLOUDY    55  45  67 S6        29.98S

$$





000
ASUS45 KCYS 241410
RWRWY

WYOMING REGIONAL WEATHER ROUNDUP
NATIONAL WEATHER SERVICE CHEYENNE WY
800 AM MDT TUE MAY 24 2016

NOTE:  "FAIR" INDICATES FEW OR NO CLOUDS BELOW 12,000 FEET
WITH NO SIGNIFICANT WEATHER AND/OR OBSTRUCTIONS TO VISIBILITY.

WYZ001-241500-
YELLOWSTONE NATIONAL PARK

CITY           SKY/WX    TMP DP  RH WIND       PRES   REMARKS
LK YELLOWSTONE   N/A     37  28  70 CALM      29.97S
W YELLOWSTONE  NOT AVBL

$$
WYZ002>013-054>058-071-098>099-241500-
NORTHERN WYOMING

CITY           SKY/WX    TMP DP  RH WIND       PRES   REMARKS
JACKSON        SUNNY     37  32  81 CALM      29.95S
CODY           CLOUDY    45  36  70 CALM      29.91S
GREYBULL       FAIR      47  34  60 CALM      29.89S
WORLAND        FAIR      46  36  68 SW3       29.90R
SHERIDAN       FAIR      49  37  63 CALM      29.92R
BUFFALO          N/A    N/A N/A N/A MISG      29.92S
GILLETTE         N/A     51  37  58 N6        29.91S
HULETT         FAIR      52  36  54 N9        29.92S
NEWCASTLE      FAIR      52  30  43 CALM      29.92R

$$
WYZ014>020-022>026-101>103-241500-
CENTRAL WYOMING

CITY           SKY/WX    TMP DP  RH WIND       PRES   REMARKS
BIG PINEY      PTSUNNY   35  31  85 W3        29.98R
PINEDALE       FAIR      34  30  86 NW3       29.98R
DUBOIS         FAIR      37  27  65 N3        29.95S
LANDER         FAIR      44  33  65 E3        29.91R
RIVERTON       FAIR      47  32  56 SW3       29.93R
CASPER         FAIR      47  35  63 N6        29.93S
DOUGLAS        FAIR      49  35  58 NW5       29.94R

$$
WYZ021-027>030-104>119-241500-
SOUTHERN WYOMING

CITY           SKY/WX    TMP DP  RH WIND       PRES   REMARKS
EVANSTON       CLOUDY    41  30  65 NE9       29.93R
KEMMERER         N/A     41  34  75 N9        29.96S
FORT BRIDGER   CLOUDY    43  36  75 N8        29.96F
ROCK SPRINGS   FAIR      45  35  68 NE5       29.94S
DIXON          FAIR      46  33  61 SE6       29.97S
RAWLINS        FAIR      45  33  63 CALM      29.96F
SARATOGA       FAIR      43  32  65 SE3       29.98S
LARAMIE        FAIR      43  35  73 S7        29.98S
CHEYENNE       FAIR      49  41  74 CALM      29.97S
TORRINGTON     FAIR      49  43  80 SE6       29.92S
PINE BLUFFS    CLOUDY    46  43  87 CALM      29.97R

$$





000
ASUS45 KCYS 241210
RWRWY

WYOMING REGIONAL WEATHER ROUNDUP
NATIONAL WEATHER SERVICE CHEYENNE WY
600 AM MDT TUE MAY 24 2016

NOTE:  "FAIR" INDICATES FEW OR NO CLOUDS BELOW 12,000 FEET
WITH NO SIGNIFICANT WEATHER AND/OR OBSTRUCTIONS TO VISIBILITY.

WYZ001-241300-
YELLOWSTONE NATIONAL PARK

CITY           SKY/WX    TMP DP  RH WIND       PRES   REMARKS
LK YELLOWSTONE   N/A     28  26  92 CALM      29.97R
6HR MIN TEMP:  27; 6HR MAX TEMP:  29;

W YELLOWSTONE  NOT AVBL

$$
WYZ002>013-054>058-071-098>099-241300-
NORTHERN WYOMING

CITY           SKY/WX    TMP DP  RH WIND       PRES   REMARKS
JACKSON        FAIR      27  25  93 N7        29.94F WCI  19
CODY           FAIR      36  32  87 S3        29.90S
GREYBULL       FAIR      40  31  70 CALM      29.88R
6HR MIN TEMP:  39; 6HR MAX TEMP:  52;

WORLAND        FAIR      35  31  85 S6        29.89R WCI  30
6HR MIN TEMP:  33; 6HR MAX TEMP:  44;

SHERIDAN       FAIR      35  30  82 CALM      29.91S
6HR MIN TEMP:  32; 6HR MAX TEMP:  43;

BUFFALO        FAIR      41  31  67 CALM      29.92S
6HR MIN TEMP:  39; 6HR MAX TEMP:  47;

GILLETTE       FAIR      32  30  92 CALM      29.90S
6HR MIN TEMP:  30; 6HR MAX TEMP:  35;

HULETT         FAIR      43  32  65 CALM      29.91S
NEWCASTLE      FAIR      39  28  65 CALM      29.90S

$$
WYZ014>020-022>026-101>103-241300-
CENTRAL WYOMING

CITY           SKY/WX    TMP DP  RH WIND       PRES   REMARKS
BIG PINEY      FAIR      28  24  85 N5        29.95F WCI  23
6HR MIN TEMP:  27; 6HR MAX TEMP:  37;

PINEDALE       FAIR      28  27  93 NW8       29.97S WCI  20
DUBOIS         FAIR      30  25  80 N3        29.95R
LANDER         FAIR      38  27  64 NW6       29.90R WCI  33
6HR MIN TEMP:  38; 6HR MAX TEMP:  49;

RIVERTON       FAIR      39  27  62 NW8       29.91S WCI  33
6HR MIN TEMP:  38; 6HR MAX TEMP:  47;

CASPER         FAIR      33  29  85 NW6       29.93S WCI  28
6HR MIN TEMP:  30; 6HR MAX TEMP:  44;

DOUGLAS        FAIR      36  33  89 N6        29.93R WCI  31
6HR MIN TEMP:  34; 6HR MAX TEMP:  43;


$$
WYZ021-027>030-104>119-241300-
SOUTHERN WYOMING

CITY           SKY/WX    TMP DP  RH WIND       PRES   REMARKS
EVANSTON       MOCLDY    41  30  65 NE8       29.92S
6HR MIN TEMP:  38; 6HR MAX TEMP:  46;

KEMMERER         N/A     36  30  80 N10       29.94F WCI  28
FORT BRIDGER   MOSUNNY   39  36  87 N8        29.96S WCI  34
ROCK SPRINGS   FAIR      40  33  76 S7        29.94S
6HR MIN TEMP:  40; 6HR MAX TEMP:  46;

DIXON          FAIR      37  30  75 CALM      29.96S
RAWLINS        FAIR      33  29  85 N5        29.97R WCI  29
6HR MIN TEMP:  32; 6HR MAX TEMP:  38;

SARATOGA       FAIR      34  30  86 SE6       29.98R WCI  29
LARAMIE        FAIR      31  30  96 S3        29.98S
6HR MIN TEMP:  31; 6HR MAX TEMP:  38;

CHEYENNE       FAIR      40  35  83 NW6       29.95S
6HR MIN TEMP:  39; 6HR MAX TEMP:  46;

TORRINGTON     FAIR      42  38  85 N3        29.89S
6HR MIN TEMP:  39; 6HR MAX TEMP:  47;

PINE BLUFFS    FAIR      34  32  93 S6        29.95R WCI  29

$$





    US Dept of Commerce
    National Oceanic and Atmospheric Administration
    National Weather Service
    1325 East West Highway
    Silver Spring, MD 20910
    Page Author: NWS Internet Services Team
Disclaimer
Information Quality
Credits
Glossary
Privacy Policy
Freedom of Information Act (FOIA)
About Us
Career Opportunities